Weather History for Eureka, NV

Change the Weather History Date:

Sunday, January 20, 2013

  Actual Average Record
Temperature  
Mean Temperature 13 °F 24 °F  
Max Temperature 35 °F 38 °F 60 °F (1994)
Min Temperature -10 °F 10 °F -19 °F (1988)
Degree Days  
Heating Degree Days 52 41  
Month to date heating degree days 1081 835  
Since 1 July heating degree days 3569 3841  
Cooling Degree Days 0 0  
Month to date cooling degree days 0 0  
Year to date cooling degree days 0 0  
Moisture  
Dew Point 0 °F    
Average Humidity 63    
Maximum Humidity 91    
Minimum Humidity 35    
Precipitation  
Precipitation 0.00 in 0.02 in 0.60 in (1983)
Month to date precipitation 0.19 0.47  
Year to date precipitation 0.19 0.47  
Sea Level Pressure  
Sea Level Pressure 30.61 in    
Wind  
Wind Speed 5 mph (SSW)    
Max Wind Speed 12 mph    
Max Gust Speed 14 mph    
T = Trace of Precipitation, MM = Missing Value Source: NWS Daily Summary

Daily Weather History Graph

Daily Weather History Graph

Search for Another Location

Airport:

Trip Planner

Search our weather history database for the weather conditions in past years. The results will help you decide how hot, cold, wet, or windy it might be!

Date:

Astronomy

Jan. 20, 2013 Rise Set
Actual Time 7:00 AM PST 4:50 PM PST
Civil Twilight 6:31 AM PST 5:19 PM PST
Nautical Twilight 5:58 AM PST 5:52 PM PST
Astronomical Twilight 5:26 AM PST 6:24 PM PST
Moon 11:54 AM PST (1/20) 1:37 AM PST (1/20)
Length of Visible Light 10h 48m
Length of Day
9h 49m
Waxing Gibbous, 67% of the Moon is Illuminated
Jan 20
Waxing Gibbous
Jan 26
Full
Feb 3
Last Quarter
Feb 9
New
Feb 17
First Quarter

Hourly Weather History & Observations

Time (PST) Temp. Windchill Dew Point Humidity Pressure Visibility Wind Dir Wind Speed Gust Speed Precip Events Conditions
12:53 AM 3.9 °F -9.4 °F -0.9 °F 80% 30.56 in - SSW 8.1 mph - N/A   Unknown
1:53 AM 1.0 °F -11.7 °F -5.1 °F 75% 30.56 in - SW 6.9 mph - N/A   Unknown
2:53 AM 1.0 °F -11.7 °F -4.0 °F 79% 30.55 in - SW 6.9 mph - N/A   Unknown
3:53 AM -5.1 °F -15.8 °F -9.0 °F 83% 30.60 in - SW 4.6 mph - N/A   Unknown
4:53 AM -2.9 °F -18.8 °F -8.0 °F 79% 30.61 in - SW 9.2 mph - N/A   Unknown
5:53 AM -2.0 °F -17.7 °F -6.0 °F 83% 30.66 in - SW 9.2 mph - N/A   Unknown
6:53 AM -8.0 °F -21.0 °F -11.9 °F 83% 30.74 in - WSW 5.8 mph - N/A   Unknown
7:53 AM -5.1 °F -17.6 °F -8.0 °F 87% 30.72 in - SSW 5.8 mph - N/A   Unknown
8:53 AM 3.9 °F -6.9 °F -0.9 °F 80% 30.71 in - South 5.8 mph - N/A   Unknown
9:53 AM 15.1 °F 6.4 °F 5.0 °F 64% 30.68 in - SSW 5.8 mph - N/A   Unknown
10:53 AM 21.9 °F - 8.1 °F 55% 30.63 in - Calm Calm - N/A   Unknown
11:53 AM 23.0 °F - 9.0 °F 55% 30.59 in - Calm Calm - N/A   Unknown
12:53 PM 27.0 °F 23.0 °F 12.0 °F 53% 30.52 in - South 3.5 mph - N/A   Unknown
1:53 PM 30.0 °F 22.4 °F 10.9 °F 45% 30.52 in - North 8.1 mph - N/A   Unknown
2:53 PM 32.0 °F - 10.0 °F 40% 30.51 in - Calm Calm - N/A   Unknown
3:53 PM 33.1 °F - 8.1 °F 35% 30.53 in - Calm Calm - N/A   Unknown
4:53 PM 21.9 °F - 7.0 °F 53% 30.57 in - Calm Calm - N/A   Unknown
5:53 PM 9.0 °F - -0.0 °F 67% 30.63 in - Calm Calm - N/A   Unknown
6:53 PM 6.1 °F -5.6 °F 1.0 °F 80% 30.67 in - SSW 6.9 mph - N/A   Unknown
7:53 PM 1.9 °F -5.6 °F -4.0 °F 76% 30.68 in - East 3.5 mph - N/A   Unknown
8:53 PM 1.9 °F -9.2 °F -2.9 °F 80% 30.65 in - SW 5.8 mph - N/A   Unknown
9:53 PM 3.0 °F - -2.0 °F 80% 30.60 in - Calm Calm - N/A   Unknown
10:53 PM 3.0 °F -8.0 °F -2.9 °F 76% 30.57 in - South 5.8 mph - N/A   Unknown
11:53 PM -0.0 °F -13.0 °F -4.0 °F 83% 30.58 in - SSW 6.9 mph - N/A   Unknown